LOT14G EDDF-EPWA

Flight info

Callsign LOT14G
Flight time 1h 25m
Altitude 35000
Route TOBAK8M/25C TOBAK N858 SWALM T201 TAMEB DCT NEVKO DCT POZUM DCT ADVAB DCT OBOKU DCT DOSIX P150 BIMPA
Aircraft E170/M-SDE3GILORVW/S

Departure

Time 2026-05-07 10:53
Airport Frankfurt Main Airport (EDDF)

Arrival

Time 2026-05-07 12:18
Airport Warsaw Chopin Airport (EPWA)
Time Latitude Longitude Altitude Speed Heading
2026-05-07 10:25 50.04960 8.59872 372 ft 0 kts 297°
2026-05-07 10:42 50.04955 8.59887 372 ft 2 kts 297°
2026-05-07 10:42 50.04949 8.59908 372 ft 2 kts 297°
2026-05-07 10:42 50.04942 8.59929 372 ft 2 kts 297°
2026-05-07 10:43 50.04937 8.59944 372 ft 0 kts 297°
2026-05-07 10:43 50.04934 8.59957 372 ft 0 kts 257°
2026-05-07 10:43 50.04934 8.59956 372 ft 1 kts 260°
2026-05-07 10:43 50.04925 8.59913 372 ft 3 kts 250°
2026-05-07 10:44 50.04922 8.59899 372 ft 0 kts 250°
2026-05-07 10:47 50.04921 8.59898 372 ft 0 kts 250°
2026-05-07 10:47 50.04918 8.59884 372 ft 2 kts 251°
2026-05-07 10:47 50.04911 8.59854 372 ft 3 kts 251°
2026-05-07 10:47 50.04900 8.59806 371 ft 6 kts 250°
2026-05-07 10:48 50.04881 8.59724 369 ft 10 kts 250°
2026-05-07 10:48 50.04852 8.59602 365 ft 14 kts 250°
2026-05-07 10:48 50.04861 8.59443 360 ft 16 kts 298°
2026-05-07 10:48 50.04846 8.59269 357 ft 18 kts 250°
2026-05-07 10:49 50.04802 8.59082 356 ft 18 kts 250°
2026-05-07 10:49 50.04765 8.58926 357 ft 13 kts 250°
2026-05-07 10:49 50.04752 8.58874 357 ft 0 kts 249°
2026-05-07 10:50 50.04749 8.58864 357 ft 2 kts 249°
2026-05-07 10:50 50.04741 8.58833 356 ft 4 kts 249°
2026-05-07 10:50 50.04720 8.58783 357 ft 7 kts 215°
2026-05-07 10:50 50.04662 8.58761 356 ft 10 kts 188°
2026-05-07 10:51 50.04594 8.58728 359 ft 9 kts 219°
2026-05-07 10:51 50.04537 8.58653 358 ft 11 kts 220°
2026-05-07 10:51 50.04484 8.58572 361 ft 9 kts 246°
2026-05-07 10:51 50.04481 8.58563 361 ft 0 kts 248°
2026-05-07 10:52 50.04478 8.58549 362 ft 6 kts 249°
2026-05-07 10:52 50.04376 8.58123 368 ft 76 kts 250°
2026-05-07 10:52 50.04120 8.57054 359 ft 133 kts 251°
2026-05-07 10:52 50.03783 8.55572 684 ft 148 kts 252°
2026-05-07 10:53 50.03415 8.54023 1177 ft 158 kts 251°
2026-05-07 10:53 50.03010 8.52445 1777 ft 163 kts 244°
2026-05-07 10:53 50.02158 8.51192 2251 ft 186 kts 209°
2026-05-07 10:53 50.00922 8.50271 2722 ft 209 kts 207°
2026-05-07 10:54 49.99510 8.49303 3211 ft 233 kts 204°
2026-05-07 10:54 49.98004 8.48368 4078 ft 237 kts 204°
2026-05-07 10:54 49.96527 8.47506 5231 ft 225 kts 201°
2026-05-07 10:54 49.95042 8.46725 5910 ft 236 kts 200°
2026-05-07 10:55 49.93423 8.45937 6503 ft 250 kts 199°
2026-05-07 10:55 49.91772 8.44946 7107 ft 260 kts 220°
2026-05-07 10:55 49.90818 8.42734 8019 ft 248 kts 263°
2026-05-07 10:55 49.90955 8.40173 8848 ft 244 kts 282°
2026-05-07 10:56 49.91272 8.37581 9471 ft 253 kts 284°
2026-05-07 10:56 49.92048 8.35124 9921 ft 265 kts 315°
2026-05-07 10:56 49.93704 8.33713 10145 ft 287 kts 351°
2026-05-07 10:56 49.95660 8.34215 10948 ft 291 kts 29°
2026-05-07 10:57 49.97075 8.36451 11487 ft 305 kts 61°
2026-05-07 10:57 49.97686 8.39677 11921 ft 319 kts 73°
2026-05-07 10:57 49.98502 8.42903 12348 ft 328 kts 64°
2026-05-07 10:57 49.99491 8.46101 13057 ft 330 kts 60°
2026-05-07 10:58 50.00565 8.49199 13798 ft 331 kts 58°
2026-05-07 10:58 50.01698 8.52321 14516 ft 332 kts 58°
2026-05-07 10:58 50.02840 8.55415 15151 ft 335 kts 58°
2026-05-07 10:58 50.04023 8.58597 15816 ft 338 kts 58°
2026-05-07 10:59 50.05190 8.61732 16446 ft 342 kts 58°
2026-05-07 10:59 50.06392 8.64962 17082 ft 345 kts 58°
2026-05-07 10:59 50.07594 8.68196 17700 ft 348 kts 58°
2026-05-07 10:59 50.08803 8.71448 18322 ft 352 kts 58°
2026-05-07 11:00 50.10022 8.74733 18938 ft 355 kts 58°
2026-05-07 11:00 50.11250 8.78047 19553 ft 357 kts 58°
2026-05-07 11:00 50.12487 8.81390 20148 ft 360 kts 58°
2026-05-07 11:00 50.13734 8.84763 20724 ft 363 kts 59°
2026-05-07 11:01 50.15003 8.88200 21290 ft 366 kts 59°
2026-05-07 11:01 50.16273 8.91647 21845 ft 369 kts 59°
2026-05-07 11:01 50.17549 8.95111 22376 ft 373 kts 59°
2026-05-07 11:01 50.18832 8.98600 22891 ft 376 kts 59°
2026-05-07 11:02 50.20128 9.02130 23403 ft 379 kts 59°
2026-05-07 11:02 50.21446 9.05725 23933 ft 382 kts 59°
2026-05-07 11:02 50.22760 9.09312 24482 ft 384 kts 59°
2026-05-07 11:02 50.24079 9.12922 25041 ft 385 kts 59°
2026-05-07 11:03 50.25417 9.16586 25576 ft 387 kts 59°
2026-05-07 11:03 50.26749 9.20238 26080 ft 390 kts 59°
2026-05-07 11:03 50.28074 9.23877 26571 ft 392 kts 59°
2026-05-07 11:03 50.29433 9.27614 27066 ft 395 kts 59°
2026-05-07 11:04 50.30777 9.31318 27541 ft 397 kts 59°
2026-05-07 11:04 50.32140 9.35076 28008 ft 400 kts 59°
2026-05-07 11:04 50.33506 9.38850 28461 ft 402 kts 59°
2026-05-07 11:04 50.34903 9.42714 28940 ft 404 kts 59°
2026-05-07 11:05 50.36275 9.46518 29421 ft 405 kts 59°
2026-05-07 11:05 50.37666 9.50375 29893 ft 407 kts 59°
2026-05-07 11:05 50.39050 9.54224 30333 ft 409 kts 59°
2026-05-07 11:05 50.40449 9.58117 30758 ft 411 kts 59°
2026-05-07 11:06 50.41862 9.62055 31149 ft 414 kts 59°
2026-05-07 11:06 50.43269 9.65983 31456 ft 417 kts 60°
2026-05-07 11:06 50.44683 9.69936 31721 ft 421 kts 60°
2026-05-07 11:06 50.46109 9.73929 31989 ft 423 kts 60°
2026-05-07 11:07 50.47559 9.77996 32291 ft 424 kts 60°
2026-05-07 11:07 50.48986 9.82006 32594 ft 425 kts 60°
2026-05-07 11:07 50.50426 9.86058 32899 ft 425 kts 61°
2026-05-07 11:07 50.51850 9.90070 33161 ft 426 kts 61°
2026-05-07 11:08 50.53283 9.94113 33408 ft 427 kts 61°
2026-05-07 11:08 50.54734 9.98215 33616 ft 429 kts 61°
2026-05-07 11:08 50.56168 10.02277 33843 ft 430 kts 61°
2026-05-07 11:08 50.57621 10.06398 34038 ft 432 kts 61°
2026-05-07 11:09 50.59082 10.10548 34262 ft 433 kts 60°
2026-05-07 11:09 50.60526 10.14659 34503 ft 433 kts 60°
2026-05-07 11:09 50.61967 10.18764 34711 ft 434 kts 60°
2026-05-07 11:09 50.63421 10.22914 34909 ft 430 kts 60°
2026-05-07 11:10 50.66300 10.31153 34970 ft 437 kts 61°
2026-05-07 11:10 50.69252 10.39629 34973 ft 450 kts 61°
2026-05-07 11:11 50.72302 10.48416 34971 ft 461 kts 61°
2026-05-07 11:11 50.75373 10.57293 34957 ft 463 kts 61°
2026-05-07 11:12 50.78429 10.66157 34954 ft 462 kts 62°
2026-05-07 11:12 50.80830 10.75514 34961 ft 462 kts 77°
2026-05-07 11:13 50.81866 10.85447 34960 ft 461 kts 82°
2026-05-07 11:13 50.82748 10.95454 34974 ft 461 kts 83°
2026-05-07 11:14 50.83609 11.05420 34980 ft 460 kts 83°
2026-05-07 11:14 50.84464 11.15415 34975 ft 460 kts 83°
2026-05-07 11:15 50.85309 11.25402 34977 ft 461 kts 83°
2026-05-07 11:15 50.86924 11.35166 34982 ft 465 kts 66°
2026-05-07 11:16 50.89518 11.44510 34981 ft 464 kts 67°
2026-05-07 11:16 50.92063 11.53862 34983 ft 464 kts 67°
2026-05-07 11:17 50.94598 11.63228 34975 ft 465 kts 67°
2026-05-07 11:17 50.97130 11.72624 34971 ft 464 kts 68°
2026-05-07 11:18 50.99656 11.82032 34973 ft 465 kts 68°
2026-05-07 11:18 51.02187 11.91502 34988 ft 466 kts 68°
2026-05-07 11:19 51.04691 12.00908 34977 ft 465 kts 68°
2026-05-07 11:19 51.07186 12.10317 34978 ft 466 kts 68°
2026-05-07 11:20 51.09683 12.19773 34977 ft 466 kts 68°
2026-05-07 11:20 51.12183 12.29283 34973 ft 467 kts 69°
2026-05-07 11:21 51.14682 12.38825 34979 ft 467 kts 69°
2026-05-07 11:21 51.17159 12.48326 34992 ft 467 kts 69°
2026-05-07 11:22 51.19635 12.57859 34976 ft 468 kts 69°
2026-05-07 11:22 51.22116 12.67451 34973 ft 469 kts 70°
2026-05-07 11:23 51.24583 12.77034 34971 ft 468 kts 70°
2026-05-07 11:23 51.25711 12.81429 34974 ft 468 kts 70°
2026-05-07 11:24 51.28010 12.90412 34967 ft 469 kts 70°
2026-05-07 11:24 51.30469 13.00058 34983 ft 470 kts 70°
2026-05-07 11:25 51.32902 13.09647 34985 ft 470 kts 70°
2026-05-07 11:25 51.35361 13.19377 34967 ft 471 kts 70°
2026-05-07 11:26 51.37785 13.29014 34970 ft 470 kts 70°
2026-05-07 11:26 51.40215 13.38711 34973 ft 470 kts 70°
2026-05-07 11:27 51.42629 13.48389 34965 ft 470 kts 70°
2026-05-07 11:27 51.45041 13.58102 34978 ft 471 kts 70°
2026-05-07 11:28 51.47462 13.67895 34978 ft 472 kts 71°
2026-05-07 11:28 51.49859 13.77632 34978 ft 471 kts 71°
2026-05-07 11:29 51.52243 13.87362 34975 ft 471 kts 71°
2026-05-07 11:29 51.54629 13.97140 34976 ft 471 kts 71°
2026-05-07 11:30 51.56994 14.06878 34983 ft 471 kts 71°
2026-05-07 11:30 51.59366 14.16688 34987 ft 473 kts 72°
2026-05-07 11:31 51.61736 14.26534 34978 ft 473 kts 72°
2026-05-07 11:31 51.64099 14.36396 34972 ft 474 kts 72°
2026-05-07 11:32 51.67624 14.51189 34970 ft 474 kts 72°
2026-05-07 11:33 51.69975 14.61110 34978 ft 475 kts 72°
2026-05-07 11:33 51.72270 14.71069 34976 ft 473 kts 75°
2026-05-07 11:34 51.74378 14.81056 34961 ft 475 kts 75°
2026-05-07 11:34 51.76512 14.91163 34981 ft 476 kts 75°
2026-05-07 11:35 51.78620 15.01193 35026 ft 476 kts 75°
2026-05-07 11:35 51.79677 15.06241 34912 ft 475 kts 75°
2026-05-07 11:35 51.80731 15.11292 35067 ft 477 kts 75°
2026-05-07 11:35 51.81782 15.16336 34958 ft 477 kts 75°
2026-05-07 11:36 51.82842 15.21437 34961 ft 478 kts 75°
2026-05-07 11:36 51.84936 15.31553 34970 ft 478 kts 75°
2026-05-07 11:37 51.87033 15.41735 34971 ft 477 kts 75°
2026-05-07 11:37 51.89106 15.51857 34976 ft 478 kts 75°
2026-05-07 11:38 51.91182 15.62042 34973 ft 479 kts 75°
2026-05-07 11:38 51.93261 15.72293 34981 ft 478 kts 76°
2026-05-07 11:39 51.95320 15.82501 34983 ft 479 kts 76°
2026-05-07 11:39 51.97374 15.92737 34979 ft 478 kts 76°
2026-05-07 11:40 51.99409 16.02932 34977 ft 481 kts 76°
2026-05-07 11:40 52.01454 16.13231 34976 ft 480 kts 76°
2026-05-07 11:41 52.03493 16.23551 34980 ft 482 kts 76°
2026-05-07 11:41 52.05523 16.33880 34974 ft 481 kts 76°
2026-05-07 11:42 52.07538 16.44194 34969 ft 483 kts 76°
2026-05-07 11:42 52.09568 16.54641 34972 ft 484 kts 76°
2026-05-07 11:43 52.11584 16.65069 34978 ft 484 kts 77°
2026-05-07 11:43 52.13322 16.75589 34981 ft 480 kts 85°
2026-05-07 11:44 52.14411 16.86210 34974 ft 479 kts 86°
2026-05-07 11:44 52.15479 16.96918 34967 ft 481 kts 86°
2026-05-07 11:45 52.16540 17.07678 34967 ft 484 kts 86°
2026-05-07 11:45 52.17588 17.18407 34961 ft 484 kts 86°
2026-05-07 11:46 52.18632 17.29209 34954 ft 484 kts 86°
2026-05-07 11:46 52.19662 17.39974 34949 ft 484 kts 86°
2026-05-07 11:47 52.20688 17.50783 34952 ft 485 kts 86°
2026-05-07 11:47 52.21703 17.61603 34950 ft 484 kts 86°
2026-05-07 11:48 52.22708 17.72424 34946 ft 488 kts 87°
2026-05-07 11:48 52.23711 17.83336 34949 ft 488 kts 87°
2026-05-07 11:49 52.24705 17.94264 34948 ft 490 kts 87°
2026-05-07 11:49 52.25656 18.05194 34950 ft 490 kts 88°
2026-05-07 11:50 52.26562 18.16202 34947 ft 490 kts 88°
2026-05-07 11:50 52.27450 18.27082 34947 ft 482 kts 88°
2026-05-07 11:51 52.28320 18.37887 34950 ft 484 kts 88°
2026-05-07 11:51 52.28756 18.43345 34563 ft 490 kts 88°
2026-05-07 11:51 52.29193 18.48860 32924 ft 501 kts 88°
2026-05-07 11:51 52.29634 18.54416 32291 ft 485 kts 88°
2026-05-07 11:52 52.30057 18.59799 31638 ft 473 kts 88°
2026-05-07 11:52 52.30467 18.65068 31009 ft 465 kts 89°
2026-05-07 11:52 52.30868 18.70249 30394 ft 459 kts 89°
2026-05-07 11:52 52.31261 18.75355 29796 ft 457 kts 89°
2026-05-07 11:53 52.31654 18.80483 29188 ft 455 kts 89°
2026-05-07 11:53 52.32041 18.85566 28592 ft 453 kts 89°
2026-05-07 11:53 52.32428 18.90671 27986 ft 449 kts 88°
2026-05-07 11:53 52.32802 18.95642 27402 ft 446 kts 88°
2026-05-07 11:54 52.33178 19.00664 26818 ft 442 kts 88°
2026-05-07 11:54 52.33548 19.05628 26226 ft 439 kts 88°
2026-05-07 11:54 52.33910 19.10531 25651 ft 435 kts 88°
2026-05-07 11:54 52.34267 19.15378 25083 ft 432 kts 88°
2026-05-07 11:55 52.34621 19.20218 24521 ft 429 kts 87°
2026-05-07 11:55 52.34920 19.25045 24324 ft 422 kts 89°
2026-05-07 11:55 52.35159 19.29815 24332 ft 425 kts 89°
2026-05-07 11:55 52.35398 19.34630 23878 ft 428 kts 89°
2026-05-07 11:56 52.35633 19.39388 23343 ft 423 kts 89°
2026-05-07 11:56 52.35866 19.44173 22783 ft 418 kts 89°
2026-05-07 11:56 52.36092 19.48825 22240 ft 412 kts 89°
2026-05-07 11:56 52.36313 19.53430 21704 ft 408 kts 89°
2026-05-07 11:57 52.36531 19.58015 21166 ft 403 kts 88°
2026-05-07 11:57 52.36747 19.62591 20636 ft 400 kts 88°
2026-05-07 11:57 52.36958 19.67095 20103 ft 396 kts 89°
2026-05-07 11:57 52.37163 19.71497 19582 ft 393 kts 89°
2026-05-07 11:58 52.37376 19.75919 19071 ft 389 kts 86°
2026-05-07 11:58 52.38127 19.80148 18829 ft 388 kts 71°
2026-05-07 11:58 52.39119 19.84260 18858 ft 389 kts 70°
2026-05-07 11:58 52.40118 19.88355 18526 ft 390 kts 70°
2026-05-07 11:59 52.41131 19.92500 18176 ft 387 kts 70°
2026-05-07 11:59 52.42123 19.96558 17837 ft 385 kts 70°
2026-05-07 11:59 52.43105 20.00582 17492 ft 383 kts 70°
2026-05-07 11:59 52.44078 20.04579 17146 ft 375 kts 70°
2026-05-07 12:00 52.45028 20.08483 16777 ft 361 kts 70°
2026-05-07 12:00 52.45934 20.12210 16413 ft 348 kts 70°
2026-05-07 12:00 52.46805 20.15807 16060 ft 338 kts 70°
2026-05-07 12:00 52.47668 20.19376 15714 ft 334 kts 70°
2026-05-07 12:01 52.48521 20.22908 15380 ft 335 kts 70°
2026-05-07 12:01 52.49374 20.26444 15046 ft 334 kts 70°
2026-05-07 12:01 52.50229 20.29998 14709 ft 334 kts 71°
2026-05-07 12:01 52.50670 20.33606 14371 ft 324 kts 97°
2026-05-07 12:02 52.50079 20.37083 14094 ft 314 kts 120°
2026-05-07 12:02 52.49092 20.40231 13786 ft 313 kts 122°
2026-05-07 12:02 52.48051 20.43349 13459 ft 311 kts 123°
2026-05-07 12:02 52.46994 20.46437 13116 ft 309 kts 124°
2026-05-07 12:03 52.45943 20.49473 12779 ft 308 kts 124°
2026-05-07 12:03 52.44883 20.52519 12440 ft 306 kts 123°
2026-05-07 12:03 52.43826 20.55545 12101 ft 304 kts 123°
2026-05-07 12:03 52.42781 20.58530 11757 ft 303 kts 123°
2026-05-07 12:04 52.41744 20.61490 11421 ft 302 kts 123°
2026-05-07 12:04 52.40693 20.64488 11075 ft 300 kts 123°
2026-05-07 12:04 52.39659 20.67431 10732 ft 299 kts 124°
2026-05-07 12:04 52.38625 20.70371 10384 ft 298 kts 124°
2026-05-07 12:05 52.37604 20.73269 10042 ft 296 kts 124°
2026-05-07 12:05 52.36585 20.76160 9699 ft 295 kts 123°
2026-05-07 12:05 52.35561 20.79058 9352 ft 293 kts 123°
2026-05-07 12:05 52.34540 20.81948 9004 ft 292 kts 123°
2026-05-07 12:06 52.33534 20.84790 8660 ft 291 kts 123°
2026-05-07 12:06 52.32532 20.87618 8321 ft 289 kts 123°
2026-05-07 12:06 52.31525 20.90458 7974 ft 288 kts 123°
2026-05-07 12:06 52.30521 20.93285 7627 ft 287 kts 123°
2026-05-07 12:07 52.29526 20.96084 7283 ft 285 kts 122°
2026-05-07 12:07 52.28539 20.98857 6938 ft 284 kts 122°
2026-05-07 12:07 52.27535 21.01633 6586 ft 281 kts 128°
2026-05-07 12:07 52.26091 21.03654 6256 ft 271 kts 152°
2026-05-07 12:08 52.24477 21.05106 5914 ft 263 kts 154°
2026-05-07 12:08 52.22899 21.06491 5555 ft 256 kts 154°
2026-05-07 12:08 52.21326 21.07859 5193 ft 251 kts 154°
2026-05-07 12:08 52.19830 21.09155 4933 ft 241 kts 154°
2026-05-07 12:09 52.18373 21.10414 4907 ft 234 kts 154°
2026-05-07 12:09 52.16930 21.11657 4914 ft 237 kts 154°
2026-05-07 12:09 52.15497 21.12891 4812 ft 229 kts 154°
2026-05-07 12:09 52.14099 21.14113 4405 ft 230 kts 154°
2026-05-07 12:10 52.12677 21.15357 3905 ft 235 kts 153°
2026-05-07 12:10 52.11225 21.16627 3433 ft 238 kts 153°
2026-05-07 12:10 52.09777 21.17894 3048 ft 239 kts 153°
2026-05-07 12:10 52.08231 21.18850 2983 ft 235 kts 179°
2026-05-07 12:11 52.06620 21.18737 2992 ft 234 kts 186°
2026-05-07 12:11 52.05061 21.18513 3001 ft 214 kts 186°
2026-05-07 12:11 52.03635 21.18311 2953 ft 197 kts 186°
2026-05-07 12:11 52.02322 21.18128 2957 ft 188 kts 186°
2026-05-07 12:12 52.01006 21.17945 2982 ft 190 kts 186°
2026-05-07 12:12 51.99796 21.17256 2995 ft 187 kts 225°
2026-05-07 12:12 51.99265 21.15544 3001 ft 165 kts 270°
2026-05-07 12:12 51.99623 21.13848 3004 ft 160 kts 304°
2026-05-07 12:13 52.00290 21.12397 2994 ft 161 kts 306°
2026-05-07 12:13 52.00972 21.10951 2990 ft 161 kts 307°
2026-05-07 12:13 52.01728 21.09642 2978 ft 163 kts 327°
2026-05-07 12:13 52.02709 21.08762 2995 ft 162 kts 330°
2026-05-07 12:14 52.03709 21.07888 2934 ft 164 kts 330°
2026-05-07 12:14 52.04709 21.07019 2739 ft 161 kts 330°
2026-05-07 12:14 52.05638 21.06216 2590 ft 148 kts 330°
2026-05-07 12:14 52.06541 21.05432 2374 ft 146 kts 330°
2026-05-07 12:15 52.07432 21.04658 2172 ft 146 kts 331°
2026-05-07 12:15 52.08324 21.03886 1969 ft 145 kts 331°
2026-05-07 12:15 52.09205 21.03120 1771 ft 144 kts 331°
2026-05-07 12:15 52.10088 21.02352 1573 ft 143 kts 332°
2026-05-07 12:16 52.10923 21.01622 1347 ft 130 kts 330°
2026-05-07 12:16 52.11724 21.00923 1133 ft 127 kts 332°
2026-05-07 12:16 52.12495 21.00289 952 ft 123 kts 332°
2026-05-07 12:16 52.13237 20.99629 825 ft 123 kts 329°
2026-05-07 12:17 52.13996 20.98958 700 ft 127 kts 330°
2026-05-07 12:17 52.14787 20.98273 532 ft 130 kts 330°
2026-05-07 12:17 52.15575 20.97582 369 ft 128 kts 331°
2026-05-07 12:17 52.16314 20.96940 335 ft 100 kts 330°
2026-05-07 12:18 52.16783 20.96527 329 ft 54 kts 332°
2026-05-07 12:18 52.17053 20.96293 333 ft 40 kts 337°
2026-05-07 12:18 52.17272 20.96245 335 ft 29 kts
2026-05-07 12:18 52.17401 20.96321 334 ft 17 kts 57°
2026-05-07 12:19 52.17465 20.96497 331 ft 16 kts 61°
2026-05-07 12:19 52.17445 20.96596 332 ft 5 kts 150°
2026-05-07 12:19 52.17439 20.96600 332 ft 0 kts 179°
2026-05-07 12:19 52.17433 20.96587 332 ft 3 kts 238°
2026-05-07 12:20 52.17415 20.96541 332 ft 5 kts 228°
2026-05-07 12:20 52.17387 20.96515 332 ft 2 kts 205°
2026-05-07 12:20 52.17379 20.96508 332 ft 0 kts 206°